Tracking 29892 objects as of 21-Nov-2024
HD Live streaming from Space Station
objects crossing your sky now

SL-16 DEB

Track SL-16 DEB now!
10-day predictions


NORAD ID: 22502
Int'l Code: 1992-093GM
Perigee: 827.3 km
Apogee: 1,049.6 km
Inclination: 70.8 °
Period: 103.7 minutes
Semi major axis: 7309 km
RCS: 0.0122 m2 (small)
Launch date: December 25, 1992
Source: Commonwealth of Independent States (former USSR) (CIS)
Launch site: TYURATAM MISSILE AND SPACE COMPLEX (TTMTR)

Note: This is SATELLITE DEBRIS
Your satellite tracking list
Your tracking list is empty




NASA's NSSDC Master Catalog

Two Line Element Set (TLE):
1 22502U 92093GM  24325.27552223  .00000352  00000-0  29784-3 0  9991
2 22502  70.8172  60.0948 0152062  31.5238   0.8819 13.89235537614624
Source of the keplerian elements: AFSPC